Location: Perryvale
(54.4667°N, 113.3833°W)
Time: 08:17:04
(UTC+00:00)

deb Explorer IX - Pass Details

Date: 25 May 2024
Orbit: 511 x 884 km, 38.7° (Epoch: 23 June)

Event Time Altitude Azimuth Distance (km) Brightness Sun altitude
Rises 05:04:19 0° 223° (SW) 3,075 ? -8.3°
Reaches altitude 10° 05:09:01 10° 184° (S) 2,036 ? -8.6°
Maximum altitude 05:09:50 10° 174° (S) 1,988 ? -8.7°
Enters shadow 05:10:33 10° 165° (SSE) 1,991 ? -8.8°
